Regional Weather Roundup
Issued by NWS Glasgow, MT

Home | Current Version | Previous Version | Text Only | Print | Product List | Glossary On
Versions: 1 2 3 4 5 6 7 8 9 10 11 12 13 14 15 16 17 18 19 20 21 22 23 24 25 26 27 28 29 30 31 32 33 34 35 36 37 38 39 40 41 42 43 44 45 46 47 48 49 50
000
ASUS45 KGGW 152115
RWRGGW
HOURLY REGIONAL WEATHER ROUNDUP FOR NORTHEAST MONTANA
NATIONAL WEATHER SERVICE GLASGOW MONTANA
200 PM MST FRI DEC 15 2017

NOTE: "FAIR" INDICATES FEW OR NO CLOUDS BELOW 12,000 FEET WITH NO
SIGNIFICANT WEATHER AND/OR OBSTRUCTIONS TO VISISBILITY.

NORTHEAST MONTANA


CITY           SKY/WX    TMP DP  RH WIND       PRES   REMARKS
GLASGOW        CLOUDY    41  24  51 S5        29.59F
PLENTYWOOD       N/A     45  28  51 W12G20      N/A
WOLF POINT     CLOUDY    44  23  43 W8        29.59F
JORDAN           N/A     49  19  30 W10       29.63F
WINNETT          N/A     46  28  49 NE1         N/A
SIDNEY         CLOUDY    48  22  35 W18       29.55F
GLENDIVE       CLOUDY    48  20  32 SW8       29.62S
MALTA            N/A     51  26  37 W12G22      N/A
SCOBEY           N/A     46  26  46 W10G17    29.56F

FORT PECK REPORTS


CITY           SKY/WX    TMP DP  RH WIND       PRES   REMARKS
FORT PECK        N/A     47  23  38 W7          N/A
THE PINES        N/A     49  21  33 W3          N/A

SOUTHEAST MONTANA


CITY           SKY/WX    TMP DP  RH WIND       PRES   REMARKS
BILLINGS       CLOUDY    45  16  31 SW20G25   29.74F
MILES CITY     CLOUDY    50  20  30 W10       29.65F
BAKER          CLOUDY    43  27  53 W13       29.63F
LIVINGSTON     CLOUDY    45  22  40 SW52G63   29.77F

CENTRAL MONTANA


CITY           SKY/WX    TMP DP  RH WIND       PRES   REMARKS
HAVRE          CLOUDY    50  21  32 SW20      29.64F
LEWISTOWN      CLOUDY    45  23  42 W12       29.69F
GREAT FALLS    CLOUDY    47  15  27 SW28G39   29.73F
CUT BANK       PTSUNNY   47  24  40 W30G38    29.68F
HELENA         CLOUDY    26  23  88 N3        29.87F
BUTTE          CLOUDY    27  19  72 VRB5      29.89F
BOZEMAN        CLOUDY    22  18  85 E3        29.90F

WESTERN MONTANA


CITY           SKY/WX    TMP DP  RH WIND       PRES   REMARKS
MISSOULA       CLOUDY    27  25  92 NW3       29.96F FOG
KALISPELL      NOT AVBL

NORTH DAKOTA


CITY           SKY/WX    TMP DP  RH WIND       PRES   REMARKS
WILLISTON      MOSUNNY   39  23  52 NW5       29.56S
DICKINSON      CLOUDY    45  23  42 W15       29.56F
MINOT          CLOUDY    40  26  57 SW6       29.52F
BISMARCK       CLOUDY    44  25  47 W7        29.58F

SOUTHERN SASKATCHEWAN


CITY           SKY/WX    TMP DP  RH WIND       PRES   REMARKS
REGINA         CLOUDY    39  32  75 NW15      29.47F
MOOSE JAW      CLOUDY    43  32  65 NW17      29.52S
ESTEVAN        CLOUDY    39  27  60 SW7       29.48F
SWIFT CURRENT  CLOUDY    39  27  60 W13G18    29.58R




USA.gov is the U.S. government's official web portal to all federal, state and local government web resources and services.